When you browse on this site, cookies collect data to enhance your experience and personalize the content and advertising you see.
Visit our Privacy Policy to learn more. By continuing to use the site, you agree to this use of cookies and data.
  • In France
  • List of Countries
  • For 7 days
  • Water Temperature
  • Satellite Maps
  • Weather Map
  • Weather Widgets
  • user-avatar
    Login

    Hourly Weather Urchiab

    Today, 13 December, Thursday

    Time Temperature Precipitation Wind Pressure Humidity
    00:00 +2°C° 0 mm 3 mps 650 mmHg 76%
    01:00 +2°C° 0 mm 3 mps 650 mmHg 76%
    02:00 +1°C° 0 mm 3 mps 650 mmHg 77%
    03:00 +1°C° 0 mm 3 mps 650 mmHg 77%
    04:00 +1°C° 0 mm 3 mps 650 mmHg 77%
    05:00 +1°C° 0 mm 3 mps 650 mmHg 77%
    06:00 -1°C° 0 mm 4 mps 650 mmHg 77%
    07:00 0°C° 0 mm 4 mps 651 mmHg 75%
    08:00 0°C° 0 mm 4 mps 651 mmHg 73%
    09:00 +1°C° 0 mm 4 mps 652 mmHg 71%
    10:00 +1°C° 0.1 mm 5 mps 652 mmHg 69%
    11:00 +1°C° 0.1 mm 5 mps 653 mmHg 68%
    12:00 +1°C° 0.1 mm 5 mps 653 mmHg 66%
    13:00 +1°C° 0.1 mm 5 mps 654 mmHg 67%
    14:00 +1°C° 0.1 mm 5 mps 654 mmHg 69%
    15:00 0°C° 0.1 mm 5 mps 654 mmHg 70%
    16:00 0°C° 0 mm 5 mps 655 mmHg 70%
    17:00 -1°C° 0 mm 4 mps 655 mmHg 71%
    18:00 -1°C° 0 mm 4 mps 656 mmHg 71%
    19:00 -2°C° 0 mm 4 mps 656 mmHg 69%
    20:00 -2°C° 0 mm 4 mps 656 mmHg 67%
    21:00 -2°C° 0 mm 3 mps 656 mmHg 65%
    22:00 -2°C° 0 mm 3 mps 657 mmHg 63%
    23:00 -2°C° 0 mm 3 mps 657 mmHg 62%

    Tomorrow, 14 December, Friday

    Time Temperature Precipitation Wind Pressure Humidity
    00:00 -4°C° 0 mm 3 mps 657 mmHg 60%
    01:00 -4°C° 0 mm 3 mps 658 mmHg 61%
    02:00 -4°C° 0 mm 3 mps 658 mmHg 62%
    03:00 -4°C° 0 mm 2 mps 658 mmHg 62%
    04:00 -4°C° 0 mm 2 mps 658 mmHg 63%
    05:00 -4°C° 0 mm 2 mps 658 mmHg 64%
    06:00 -4°C° 0 mm 2 mps 659 mmHg 65%
    07:00 -4°C° 0 mm 2 mps 659 mmHg 63%
    08:00 -1°C° 0 mm 1 mps 659 mmHg 60%
    09:00 0°C° 0 mm 1 mps 660 mmHg 57%
    10:00 0°C° 0 mm 1 mps 659 mmHg 56%
    11:00 -1°C° 0 mm 2 mps 659 mmHg 56%
    12:00 +1°C° 0 mm 2 mps 659 mmHg 55%
    13:00 -1°C° 0 mm 2 mps 659 mmHg 58%
    14:00 +1°C° 0 mm 1 mps 659 mmHg 62%
    15:00 +1°C° 0 mm 1 mps 659 mmHg 65%
    16:00 0°C° 0 mm 1 mps 659 mmHg 70%
    17:00 0°C° 0 mm 1 mps 659 mmHg 75%
    18:00 -1°C° 0 mm 1 mps 659 mmHg 80%
    19:00 -1°C° 0.1 mm 1 mps 660 mmHg 80%
    20:00 -1°C° 0.1 mm 1 mps 660 mmHg 80%
    21:00 -1°C° 0.1 mm 1 mps 660 mmHg 80%
    22:00 -1°C° 0 mm 1 mps 660 mmHg 79%
    23:00 -1°C° 0 mm 1 mps 660 mmHg 77%

    Day after tomorrow, 15 December, Saturday

    Time Temperature Precipitation Wind Pressure Humidity
    00:00 -1°C° 0 mm 1 mps 660 mmHg 76%
    01:00 -2°C° 0 mm 1 mps 660 mmHg 73%
    02:00 -2°C° 0 mm 1 mps 660 mmHg 70%
    03:00 -2°C° 0 mm 1 mps 660 mmHg 68%
    04:00 -2°C° 0 mm 1 mps 660 mmHg 67%
    05:00 -2°C° 0 mm 1 mps 660 mmHg 66%
    06:00 -3°C° 0 mm 1 mps 660 mmHg 65%
    07:00 -2°C° 0 mm 1 mps 660 mmHg 60%
    08:00 -1°C° 0 mm 1 mps 661 mmHg 56%
    09:00 0°C° 0 mm 1 mps 661 mmHg 51%
    10:00 +1°C° 0 mm 1 mps 661 mmHg 50%
    11:00 +2°C° 0 mm 1 mps 661 mmHg 48%
    12:00 +3°C° 0 mm 1 mps 661 mmHg 46%
    13:00 +2°C° 0 mm 1 mps 661 mmHg 48%
    14:00 +2°C° 0 mm 1 mps 661 mmHg 51%
    15:00 +2°C° 0 mm 1 mps 661 mmHg 54%
    16:00 +1°C° 0 mm 1 mps 661 mmHg 59%
    17:00 0°C° 0 mm 1 mps 661 mmHg 64%
    18:00 -1°C° 0 mm 1 mps 661 mmHg 69%
    19:00 -1°C° 0 mm 1 mps 661 mmHg 68%
    20:00 -2°C° 0 mm 1 mps 661 mmHg 67%
    21:00 -2°C° 0 mm 1 mps 661 mmHg 66%
    22:00 -2°C° 0 mm 1 mps 661 mmHg 65%
    23:00 -2°C° 0 mm 1 mps 661 mmHg 65%

    16 December, Sunday

    Time Temperature Precipitation Wind Pressure Humidity
    00:00 -2°C° 0 mm 1 mps 661 mmHg 65%
    01:00 -2°C° 0 mm 1 mps 661 mmHg 64%
    02:00 -2°C° 0 mm 1 mps 661 mmHg 64%
    03:00 -2°C° 0 mm 1 mps 661 mmHg 64%
    04:00 -2°C° 0 mm 1 mps 661 mmHg 64%
    05:00 -2°C° 0 mm 1 mps 661 mmHg 63%
    06:00 -2°C° 0 mm 1 mps 661 mmHg 63%
    07:00 -1°C° 0 mm 1 mps 661 mmHg 61%
    08:00 0°C° 0 mm 1 mps 662 mmHg 59%
    09:00 +1°C° 0 mm 1 mps 662 mmHg 56%
    10:00 +2°C° 0 mm 1 mps 662 mmHg 55%
    11:00 +2°C° 0 mm 2 mps 662 mmHg 54%
    12:00 +3°C° 0 mm 2 mps 662 mmHg 53%
    13:00 +2°C° 0 mm 2 mps 662 mmHg 58%
    14:00 +2°C° 0 mm 2 mps 661 mmHg 62%
    15:00 +2°C° 0 mm 2 mps 661 mmHg 66%
    16:00 +1°C° 0 mm 2 mps 661 mmHg 70%
    17:00 -1°C° 0 mm 2 mps 661 mmHg 73%
    18:00 -2°C° 0 mm 2 mps 661 mmHg 77%
    19:00 -2°C° 0 mm 2 mps 661 mmHg 75%
    20:00 -2°C° 0 mm 2 mps 660 mmHg 73%
    21:00 -2°C° 0 mm 2 mps 660 mmHg 71%
    22:00 -2°C° 0 mm 2 mps 660 mmHg 70%
    23:00 -2°C° 0 mm 2 mps 660 mmHg 69%

    17 December, Monday

    Time Temperature Precipitation Wind Pressure Humidity
    00:00 -2°C° 0 mm 2 mps 659 mmHg 68%
    01:00 -2°C° 0 mm 2 mps 659 mmHg 68%
    02:00 -2°C° 0 mm 2 mps 659 mmHg 68%
    03:00 -2°C° 0 mm 2 mps 659 mmHg 68%
    04:00 -2°C° 0 mm 2 mps 658 mmHg 69%
    05:00 -2°C° 0 mm 2 mps 658 mmHg 69%
    06:00 -2°C° 0 mm 2 mps 658 mmHg 70%
    07:00 -1°C° 0 mm 2 mps 658 mmHg 70%
    08:00 -1°C° 0 mm 2 mps 658 mmHg 70%
    09:00 +1°C° 0 mm 2 mps 658 mmHg 69%
    10:00 +2°C° 0 mm 2 mps 658 mmHg 69%
    11:00 +2°C° 0 mm 2 mps 658 mmHg 68%
    12:00 +3°C° 0 mm 2 mps 658 mmHg 67%
    13:00 +2°C° 0 mm 3 mps 657 mmHg 70%
    14:00 +2°C° 0 mm 3 mps 657 mmHg 73%
    15:00 +2°C° 0 mm 3 mps 657 mmHg 75%
    16:00 +1°C° 0 mm 3 mps 657 mmHg 78%
    17:00 +1°C° 0 mm 2 mps 657 mmHg 81%
    18:00 +1°C° 0 mm 2 mps 657 mmHg 84%
    19:00 +1°C° 0 mm 2 mps 657 mmHg 83%
    20:00 -1°C° 0 mm 2 mps 657 mmHg 82%
    21:00 -1°C° 0 mm 2 mps 657 mmHg 82%
    22:00 +1°C° 0 mm 2 mps 657 mmHg 82%
    23:00 +1°C° 0 mm 2 mps 657 mmHg 81%

    18 December, Tuesday

    Time Temperature Precipitation Wind Pressure Humidity
    00:00 +1°C° 0 mm 2 mps 657 mmHg 81%
    01:00 +1°C° 0.1 mm 2 mps 657 mmHg 82%
    02:00 +1°C° 0.1 mm 2 mps 656 mmHg 83%
    03:00 +1°C° 0.1 mm 2 mps 656 mmHg 85%
    04:00 +1°C° 0.2 mm 2 mps 656 mmHg 86%
    05:00 +1°C° 0.2 mm 2 mps 656 mmHg 86%
    06:00 +1°C° 0.2 mm 2 mps 656 mmHg 87%
    07:00 +1°C° 0.3 mm 2 mps 657 mmHg 87%
    08:00 +1°C° 0.3 mm 2 mps 657 mmHg 86%
    09:00 +1°C° 0.3 mm 2 mps 657 mmHg 86%
    10:00 +2°C° 0.3 mm 2 mps 657 mmHg 85%
    11:00 +2°C° 0.3 mm 2 mps 657 mmHg 84%
    12:00 +2°C° 0.3 mm 2 mps 657 mmHg 83%
    13:00 +2°C° 0.2 mm 2 mps 657 mmHg 85%
    14:00 +2°C° 0.2 mm 2 mps 657 mmHg 86%
    15:00 +2°C° 0.2 mm 2 mps 657 mmHg 87%
    16:00 +2°C° 0.1 mm 2 mps 657 mmHg 89%
    17:00 +2°C° 0.1 mm 1 mps 657 mmHg 92%
    18:00 +2°C° 0.1 mm 1 mps 657 mmHg 94%
    19:00 +2°C° 0.1 mm 1 mps 657 mmHg 93%
    20:00 +2°C° 0.1 mm 1 mps 658 mmHg 92%
    21:00 +2°C° 0.1 mm 1 mps 658 mmHg 91%
    22:00 +1°C° 0 mm 1 mps 658 mmHg 90%
    23:00 +1°C° 0 mm 1 mps 658 mmHg 89%
    Show more